[[{"header":{"parameterUnit":"m.s-1","parameterCategory":2,"la1":30.2991,"la2":30.254,"lo1":-89.0895,"lo2":-89.0444,"dy":0.0017,"dx":0.0017,"nx":28,"ny":28,"refTime":"2023-08-10T03:00:00:Z","depth":"0","parameterNumber":2,"parameterNumberName":"U-component_of_CURRENTS"},"data":[0,0,0,0,0,0,0,0,0,0,0,0,0,0,0,0,0,0,0,0,0,0,0,0,0,0,0,0,0,0,0,0,0,0,0,0,0,0,0,0,0,0,0,0,0,0,0,0,0,0,0,0,0,0,0,0,0,0,0.2262,0.2263,0,0.2331,0.2331,0.2332,0.2312,0.2312,0.2311,0.231,0.2414,0.2417,0.2421,0,0,0,0,0,0,0,0,0,0,0,0,0,0.2068,0.2071,0.2262,0.2263,0.2264,0.2331,0.2331,0.2332,0.2313,0.2311,0.231,0.2309,0.2413,0.2417,0.2421,0,0,0,0,0,0,0,0,0,0,0,0,0,0.2141,0.2073,0.2261,0.2267,0.2268,0.2331,0.2331,0.2332,0.2313,0.2311,0.231,0.2309,0.2411,0.2417,0.2422,0.2483,0,0,0.2439,0.2441,0,0,0,0,0,0,0,0,0.2137,0.2148,0.2265,0.2267,0.2268,0.2316,0.2302,0.2386,0.2313,0.229,0.231,0.2308,0.2389,0.2396,0.2404,0.2488,0.2493,0.2439,0.2442,0.2445,0.2446,0,0,0,0,0,0,0,0.2132,0.2144,0.2284,0.2266,0.2269,0.2251,0.2259,0.2317,0.2343,0.2292,0.2292,0.2309,0.2389,0.2399,0.2407,0.2494,0.2439,0.2444,0.2447,0.2449,0.2641,0.2643,0,0,0,0,0,0,0.2139,0.214,0.2282,0.2286,0.2204,0.2256,0.2265,0.2298,0.2342,0.2348,0.231,0.2308,0.239,0.24,0.2411,0.2503,0.2445,0.245,0.2453,0.2639,0.2641,0.2643,0,0,0,0,0,0,0.2135,0.2152,0.2279,0.2217,0.2233,0.2262,0.2298,0.23,0.2302,0.2356,0.2362,0.2309,0.239,0.2403,0.2434,0.2506,0.2452,0.2457,0.2637,0.264,0.2642,0.2678,0,0,0,0,0,0,0.2129,0.215,0.2173,0.2219,0.2237,0.2321,0.23,0.2303,0.2318,0.2315,0.2358,0.2366,0.239,0.2425,0.2439,0.2513,0.2462,0.2635,0.2638,0.2641,0.2675,0.2682,0.2688,0,0,0,0,0,0.2122,0.2168,0.2174,0.2191,0.2269,0.2323,0.233,0.234,0.2319,0.2332,0.2334,0.2364,0.2458,0.2429,0.2446,0.2524,0.2633,0.2637,0.2641,0.2672,0.2681,0.2688,0,0,0,0,0,0,0.21,0.2173,0.2179,0.2245,0.2281,0.2322,0.2343,0.234,0.2353,0.2346,0.2369,0.2379,0.2444,0.2468,0.2435,0.2588,0.2561,0.2568,0.2579,0.2587,0.2594,0.26,0.2466,0,0,0,0,0,0.2107,0.2158,0.2212,0.2263,0.2283,0.2307,0.2327,0.2336,0.2358,0.236,0.239,0.2428,0.248,0.2511,0.256,0.2632,0.2678,0.2699,0.2705,0.2711,0.2727,0.2838,0.2856,0.2657,0.2657,0.2657,0,0,0.211,0.216,0.2187,0.2261,0.2287,0.2329,0.2314,0.2354,0.2387,0.2375,0.2423,0.2451,0.25,0.2578,0.2614,0.2603,0.2791,0.2716,0.272,0.2734,0.2844,0.2864,0.2881,0.266,0.2659,0.2659,0,0,0.2148,0.2188,0.2238,0.2271,0.2325,0.2347,0.2356,0.24,0.2414,0.2459,0.2467,0.2523,0.2594,0.2653,0.2688,0.2764,0.2817,0.279,0.284,0.2947,0.2965,0.2981,0.306,0.3083,0.2799,0.2799,0.2799,0,0.2144,0.2221,0.2257,0.2308,0.2339,0.2353,0.2398,0.2427,0.2472,0.2512,0.248,0.2616,0.2643,0.2764,0.2774,0.2787,0.2835,0.2803,0.2957,0.2974,0.299,0.3067,0.3092,0.2801,0.2801,0.2801,0.2801,0,0.2216,0.2268,0.23,0.2369,0.2405,0.2449,0.2493,0.2537,0.2551,0.259,0.2696,0.2727,0.2816,0.2841,0.2819,0.2963,0.2956,0.2947,0.2935,0.3012,0.3088,0.3114,0.2804,0.2804,0.2803,0.2802,0,0,0.2229,0.2329,0.2337,0.2369,0.2438,0.2474,0.255,0.2635,0.2692,0.275,0.2842,0.2923,0.2945,0.2984,0.3,0.3073,0.3204,0.3045,0.305,0.3122,0.3427,0.3393,0.3417,0.3217,0.3222,0.3226,0.3434,0,0.2267,0.2363,0.2407,0.2478,0.2524,0.257,0.2637,0.2714,0.2772,0.2863,0.2943,0.3026,0.3001,0.3039,0.3118,0.3172,0.3272,0.3148,0.3345,0.3351,0.331,0.3447,0.3302,0.3473,0.3458,0.3462,0.3465,0,0.2319,0.2377,0.2454,0.2539,0.2563,0.2601,0.2714,0.2779,0.2917,0.2965,0.3082,0.3132,0.326,0.3209,0.3405,0.3321,0.3388,0.3429,0.3438,0.3415,0.3365,0.3396,0.3519,0.3481,0.3504,0.3501,0.3498,0,0.2309,0.2407,0.2465,0.2492,0.2592,0.2636,0.269,0.2814,0.2881,0.3035,0.3104,0.3262,0.3334,0.3458,0.3533,0.3485,0.3728,0.3685,0.374,0.3737,0.3659,0.3641,0.3768,0.3866,0.3866,0.3865,0.3865,0,0.2338,0.2385,0.2457,0.2487,0.2553,0.2624,0.2711,0.2796,0.2922,0.3015,0.3147,0.3253,0.3395,0.3537,0.3605,0.3753,0.3813,0.3792,0.3812,0.3665,0.3646,0.3642,0.3532,0.3873,0.3871,0.387,0.3869,0,0.2332,0.2381,0.2443,0.2527,0.2548,0.2593,0.2692,0.2756,0.2887,0.3015,0.307,0.3272,0.3481,0.3629,0.3829,0.3842,0.3881,0.4025,0.3824,0.3817,0.3802,0.3696,0.3665,0.3565,0.4137,0.4138,0.4139,0,0.2351,0.2377,0.2445,0.2452,0.2482,0.255,0.259,0.2719,0.2784,0.3024,0.3079,0.3334,0.3485,0.3778,0.3905,0.409,0.3954,0.4015,0.3909,0.3827,0.3726,0.3538,0.3441,0.3821,0.3819,0.3818,0.3816,0,0.2369,0.2376,0.2411,0.2413,0.2432,0.2484,0.255,0.2597,0.2762,0.2884,0.3061,0.3207,0.3537,0.3676,0.3914,0.399,0.3798,0.3987,0.3973,0.356,0.3294,0.3196,0.364,0.3802,0.3803,0.3804,0.3805,0.3806,0.2364,0.2375,0.2378,0.2373,0.2367,0.2381,0.2406,0.2495,0.2595,0.2757,0.2946,0.3108,0.3379,0.3723,0.3799,0.3848,0.3775,0.3772,0.3676,0.3519,0.3331,0.3733,0.3864,0.3866,0.3867,0.3869,0.387,0,0.2387,0.2368,0.2337,0.2311,0.2242,0.2286,0.2342,0.2361,0.2435,0.261,0.2758,0.2979,0.3176,0.3403,0.3582,0.353,0.3375,0.3474,0.3187,0.313,0.3594,0.3492,0.3462,0.3462,0.3462,0.3462,0.3462,0.3462,0.2402,0.2375,0.2336,0.2192,0.214,0.2096,0.2113,0.2157,0.2249,0.2363,0.2469,0.2621,0.2932,0.3195,0.3267,0.3231,0.3022,0.2906,0.2914,0.326,0.3281,0.33,0.319,0.3096,0.3096,0.2373,0.2367,0.2362]},{"header":{"parameterUnit":"m.s-1","parameterCategory":2,"la1":30.2991,"la2":30.254,"lo1":-89.0895,"lo2":-89.0444,"dy":0.0017,"dx":0.0017,"nx":28,"ny":28,"refTime":"2023-08-10T03:00:00:Z","depth":"0","parameterNumber":3,"parameterNumberName":"V-component_of_CURRENTS"},"data":[0,0,0,0,0,0,0,0,0,0,0,0,0,0,0,0,0,0,0,0,0,0,0,0,0,0,0,0,0,0,0,0,0,0,0,0,0,0,0,0,0,0,0,0,0,0,0,0,0,0,0,0,0,0,0,0,0,0,-0.0196,-0.0196,0,-0.0229,-0.023,-0.023,-0.0283,-0.0284,-0.0285,-0.0286,-0.0221,-0.0218,-0.0215,0,0,0,0,0,0,0,0,0,0,0,0,0,-0.0193,-0.0192,-0.0196,-0.0196,-0.0197,-0.0229,-0.023,-0.023,-0.0283,-0.0284,-0.0285,-0.0286,-0.0221,-0.0218,-0.0215,0,0,0,0,0,0,0,0,0,0,0,0,0,-0.0207,-0.0192,-0.0196,-0.0227,-0.023,-0.0229,-0.023,-0.023,-0.0283,-0.0284,-0.0286,-0.0287,-0.0222,-0.0219,-0.0215,-0.0161,0,0,-0.0203,-0.0201,0,0,0,0,0,0,0,0,-0.0206,-0.0207,-0.0222,-0.0225,-0.0228,-0.0254,-0.0205,-0.0202,-0.0282,-0.0263,-0.0286,-0.0288,-0.0221,-0.0218,-0.0222,-0.0158,-0.0155,-0.0202,-0.02,-0.0198,-0.0197,0,0,0,0,0,0,0,-0.0205,-0.0206,-0.0209,-0.0222,-0.0226,-0.0245,-0.0248,-0.0205,-0.0231,-0.0264,-0.0268,-0.0272,-0.0223,-0.0226,-0.022,-0.0154,-0.0202,-0.0199,-0.0196,-0.0195,-0.0063,-0.0062,0,0,0,0,0,0,-0.0198,-0.0204,-0.0208,-0.021,-0.0221,-0.0243,-0.0247,-0.0244,-0.0234,-0.0235,-0.0271,-0.0274,-0.0232,-0.0225,-0.0218,-0.0144,-0.0198,-0.0194,-0.0192,-0.0064,-0.0063,-0.0062,0,0,0,0,0,0,-0.0198,-0.0198,-0.0207,-0.0209,-0.0211,-0.0242,-0.0238,-0.0244,-0.0249,-0.024,-0.0239,-0.027,-0.0233,-0.0224,-0.0183,-0.0142,-0.0193,-0.0189,-0.0066,-0.0064,-0.0062,-0.0002,0,0,0,0,0,0,-0.0198,-0.0197,-0.0186,-0.0208,-0.0211,-0.0188,-0.0237,-0.0243,-0.0249,-0.0254,-0.0238,-0.0234,-0.0233,-0.0189,-0.018,-0.0138,-0.0186,-0.0067,-0.0065,-0.0063,-0.0005,0.0002,0.0008,0,0,0,0,0,-0.0197,-0.0177,-0.0185,-0.0186,-0.0196,-0.0187,-0.0188,-0.0216,-0.0247,-0.023,-0.0236,-0.0235,-0.017,-0.0185,-0.0174,-0.013,-0.0068,-0.0065,-0.0063,-0.0008,0.0001,0.0008,0,0,0,0,0,0,-0.0164,-0.0181,-0.0191,-0.0175,-0.0172,-0.0195,-0.0187,-0.0208,-0.0202,-0.0205,-0.0214,-0.0208,-0.0162,-0.0153,-0.0171,-0.0089,-0.012,-0.0115,-0.0082,-0.0074,-0.0067,-0.0037,-0.0183,0,0,0,0,0,-0.015,-0.0145,-0.0155,-0.0139,-0.0137,-0.016,-0.0161,-0.0172,-0.0175,-0.0177,-0.017,-0.0159,-0.014,-0.0116,-0.0096,-0.0036,-0.0051,-0.0004,0.0002,0.0008,0.0038,0.002,0.0027,-0.0053,-0.0053,-0.0054,0,0,-0.0131,-0.0142,-0.0136,-0.0132,-0.0139,-0.0114,-0.0164,-0.0151,-0.0122,-0.0163,-0.0121,-0.0132,-0.0124,-0.0074,-0.005,-0.0059,0.0021,0.0011,0.0016,0.0044,0.0023,0.0031,0.0038,-0.0052,-0.0052,-0.0052,0,0,-0.0084,-0.0099,-0.0073,-0.0072,-0.0069,-0.0074,-0.0066,-0.0073,-0.0068,-0.0027,-0.0063,-0.0049,-0.0007,0.0001,0.0011,0.0073,0.0047,0.0074,0.0149,0.013,0.0136,0.0142,0.0123,0.0127,0.0087,0.0087,0.0088,0,-0.0054,-0.003,-0.0059,-0.0036,-0.0022,-0.0052,-0.0005,-0.0001,0.0009,0.0036,0.0001,0.0041,0.0035,0.0095,0.0098,0.0093,0.0068,0.0117,0.0138,0.0143,0.0148,0.0128,0.0131,0.0091,0.009,0.009,0.009,0,0.0009,0.003,0.0044,0.0065,0.0083,0.0114,0.012,0.0145,0.0142,0.015,0.0202,0.018,0.0207,0.0196,0.0166,0.0207,0.0173,0.0137,0.0118,0.016,0.0135,0.0138,0.0095,0.0094,0.0093,0.0092,0,0,0.0075,0.0092,0.0095,0.0127,0.014,0.0167,0.0221,0.0277,0.0324,0.0326,0.0392,0.0388,0.0364,0.0371,0.0332,0.0311,0.03,0.0241,0.0239,0.0224,0.0253,0.0233,0.0233,0.0253,0.0254,0.0255,0.0218,0,0.0143,0.0209,0.0201,0.0281,0.0323,0.0316,0.0378,0.042,0.0438,0.0492,0.0478,0.0517,0.0436,0.0444,0.0413,0.0331,0.031,0.0314,0.0215,0.0213,0.0191,0.0237,0.0234,0.0201,0.022,0.022,0.022,0,0.0213,0.0247,0.0335,0.0404,0.0425,0.0468,0.0557,0.0606,0.0661,0.0679,0.0702,0.0681,0.0679,0.0585,0.0493,0.0492,0.0389,0.0311,0.0307,0.0278,0.0199,0.0164,0.0204,0.0046,0.0223,0.0223,0.0223,0,0.0277,0.0345,0.0423,0.0438,0.0509,0.056,0.0604,0.0667,0.073,0.0791,0.0838,0.0825,0.0824,0.0708,0.0554,0.0517,0.0434,0.0363,0.0257,0.0253,0.0232,0.0225,0.0114,0.0301,0.0301,0.0301,0.0301,0,0.035,0.0407,0.0455,0.049,0.0605,0.0627,0.0745,0.0787,0.0861,0.0959,0.0933,0.1,0.0846,0.0782,0.0618,0.0462,0.0486,0.0295,0.0254,0.0251,0.0248,0.0093,-0.0003,0.03,0.03,0.03,0.0301,0,0.0403,0.0432,0.0521,0.06,0.0634,0.071,0.0816,0.0895,0.0957,0.1076,0.1106,0.1125,0.1059,0.0901,0.0721,0.0555,0.0313,0.0332,0.0344,0.0306,0.005,-0.0041,-0.0145,-0.0207,0.0216,0.0215,0.0215,0,0.0442,0.0489,0.0586,0.0642,0.0677,0.078,0.086,0.0938,0.1019,0.1163,0.1232,0.1229,0.126,0.1013,0.0738,0.0489,0.0319,0.0285,0.0218,0.0064,-0.007,-0.0113,-0.0159,0.0203,0.0203,0.0202,0.0202,0,0.0512,0.0537,0.0598,0.0706,0.079,0.0903,0.1012,0.1097,0.1211,0.133,0.1469,0.1512,0.1312,0.1097,0.0757,0.0552,0.0186,0.0268,0.0104,-0.0075,-0.0123,-0.021,0.0194,0.0198,0.0199,0.0199,0.0199,0.0199,0.0559,0.0606,0.068,0.0781,0.0884,0.1026,0.1149,0.1269,0.1444,0.1654,0.1646,0.1736,0.1384,0.095,0.0677,0.015,0.0163,-0.0032,-0.0127,-0.015,-0.0216,0.0189,0.0146,0.0146,0.0146,0.0146,0.0146,0,0.0627,0.067,0.0757,0.0893,0.1018,0.1067,0.1261,0.1411,0.1643,0.1774,0.191,0.1748,0.1338,0.0865,0.018,-0.0185,-0.0299,-0.0386,-0.0462,-0.049,-0.0135,-0.0144,-0.0247,-0.0247,-0.0247,-0.0247,-0.0247,-0.0246,0.0672,0.0748,0.0779,0.0984,0.1095,0.1315,0.1449,0.1669,0.1809,0.2002,0.2017,0.2003,0.1615,0.0436,-0.0379,-0.0576,-0.0794,-0.0834,-0.0937,-0.0733,-0.0707,-0.0683,-0.0714,-0.0934,-0.0935,-0.1231,-0.1235,-0.1238]}],[{"header":{"parameterUnit":"m.s-1","parameterCategory":2,"la1":30.2991,"la2":30.254,"lo1":-89.0895,"lo2":-89.0444,"dy":0.0017,"dx":0.0017,"nx":28,"ny":28,"refTime":"2023-08-10T03:00:00:Z","depth":"2","parameterNumber":2,"parameterNumberName":"U-component_of_CURRENTS"},"data":[0,0,0,0,0,0,0,0,0,0,0,0,0,0,0,0,0,0,0,0,0,0,0,0,0,0,0,0,0,0,0,0,0,0,0,0,0,0,0,0,0,0,0,0,0,0,0,0,0,0,0,0,0,0,0,0,0,0,0.0673,0.0674,0,0.0797,0.0799,0.0801,0.1079,0.1084,0.1089,0.1093,0.1333,0.1335,0.1337,0,0,0,0,0,0,0,0,0,0,0,0,0,0.0614,0.0615,0.0673,0.0674,0.0674,0.0796,0.0799,0.0802,0.1078,0.1084,0.109,0.1095,0.1332,0.1335,0.1337,0,0,0,0,0,0,0,0,0,0,0,0,0,0.0689,0.0615,0.0673,0.0819,0.0833,0.0796,0.0799,0.0803,0.1077,0.1084,0.1091,0.1098,0.1332,0.1335,0.1337,0.1215,0,0,0.1347,0.1348,0,0,0,0,0,0,0,0,0.0684,0.0692,0.0797,0.0809,0.0824,0.092,0.0866,0.0943,0.1075,0.0996,0.1093,0.1101,0.1193,0.1208,0.123,0.1227,0.1237,0.1347,0.1349,0.135,0.1351,0,0,0,0,0,0,0,0.0679,0.0688,0.0734,0.0797,0.0813,0.0855,0.0876,0.0882,0.1064,0.1003,0.1021,0.1015,0.1204,0.1226,0.1238,0.124,0.1347,0.135,0.1351,0.1353,0.1556,0.1559,0,0,0,0,0,0,0.0637,0.0683,0.073,0.0736,0.0757,0.085,0.0873,0.0891,0.1062,0.1091,0.1009,0.1027,0.1217,0.1234,0.1247,0.1473,0.135,0.1353,0.1355,0.1552,0.1557,0.1561,0,0,0,0,0,0,0.0635,0.064,0.0724,0.0703,0.0715,0.0843,0.0861,0.0889,0.0987,0.1063,0.1098,0.1084,0.1224,0.1243,0.1406,0.1471,0.1354,0.1357,0.1548,0.1554,0.1559,0.1694,0,0,0,0,0,0,0.0633,0.064,0.0671,0.07,0.0714,0.0777,0.0854,0.0886,0.0961,0.099,0.1135,0.1162,0.1231,0.1402,0.1409,0.1474,0.1359,0.1544,0.1551,0.1557,0.1685,0.1703,0.1719,0,0,0,0,0,0.0631,0.0644,0.0673,0.0679,0.0743,0.0776,0.0792,0.0911,0.0958,0.1021,0.1171,0.1162,0.1449,0.1408,0.1416,0.1482,0.154,0.1549,0.1556,0.1677,0.1699,0.1718,0,0,0,0,0,0,0.065,0.0672,0.0706,0.0732,0.0779,0.0822,0.0882,0.0916,0.1067,0.114,0.1208,0.1246,0.1419,0.1414,0.1366,0.1562,0.1488,0.1498,0.1577,0.1598,0.1614,0.1566,0.1362,0,0,0,0,0,0.0648,0.067,0.0699,0.0726,0.0758,0.0815,0.0848,0.0929,0.103,0.1107,0.1188,0.1304,0.1429,0.1495,0.1589,0.1661,0.1638,0.1708,0.1725,0.174,0.1708,0.1804,0.1826,0.1587,0.1587,0.1587,0,0,0.0653,0.0671,0.0684,0.0731,0.0787,0.0853,0.0864,0.0951,0.1035,0.1098,0.1268,0.1367,0.1469,0.1626,0.1692,0.1645,0.1792,0.175,0.1762,0.1721,0.1814,0.1837,0.1858,0.1593,0.1592,0.1591,0,0,0.0669,0.0707,0.0744,0.0788,0.087,0.0914,0.0939,0.1017,0.1112,0.1242,0.1352,0.1464,0.1617,0.1703,0.1767,0.1891,0.189,0.196,0.1995,0.2092,0.2112,0.2128,0.2103,0.2117,0.1956,0.1956,0.1956,0,0.0716,0.0755,0.0761,0.0821,0.0886,0.0943,0.1033,0.1099,0.1226,0.1319,0.1337,0.1589,0.1631,0.1826,0.1901,0.1919,0.1979,0.1917,0.2113,0.213,0.2145,0.2114,0.2128,0.1963,0.1963,0.1962,0.1961,0,0.0743,0.0822,0.0856,0.0961,0.1011,0.1114,0.1185,0.1289,0.1379,0.145,0.1656,0.1721,0.1883,0.1901,0.1945,0.2101,0.2108,0.2136,0.2055,0.2177,0.2137,0.2148,0.1974,0.1971,0.1969,0.1967,0,0,0.0801,0.0879,0.0915,0.0993,0.1126,0.117,0.1322,0.1483,0.16,0.1706,0.1873,0.1994,0.2041,0.2107,0.2159,0.2181,0.229,0.2226,0.2228,0.2185,0.2489,0.235,0.2348,0.2438,0.2441,0.2444,0.2407,0,0.0893,0.1008,0.1034,0.1198,0.1283,0.1388,0.1488,0.1628,0.1765,0.1931,0.2012,0.2179,0.2127,0.2232,0.2271,0.2282,0.2337,0.2292,0.2386,0.2384,0.2239,0.2362,0.2195,0.2141,0.2417,0.2419,0.242,0,0.0952,0.103,0.1173,0.1328,0.1379,0.1472,0.1697,0.1797,0.202,0.2126,0.2309,0.2415,0.2483,0.244,0.2472,0.2494,0.2526,0.2484,0.2485,0.2306,0.2269,0.2073,0.2151,0.2438,0.2437,0.2436,0.2434,0,0.0972,0.1153,0.1271,0.1326,0.1474,0.159,0.1703,0.1886,0.1985,0.2278,0.2388,0.2553,0.2635,0.2668,0.2594,0.2611,0.2606,0.2613,0.2505,0.2491,0.232,0.2285,0.2717,0.2717,0.2717,0.2717,0.2717,0,0.106,0.1179,0.1293,0.136,0.1505,0.1604,0.1783,0.1926,0.2128,0.2255,0.2488,0.2589,0.2728,0.2768,0.2687,0.2577,0.2696,0.25,0.2498,0.2357,0.2328,0.2564,0.2547,0.2716,0.2716,0.2716,0.2717,0,0.1055,0.115,0.1272,0.1442,0.15,0.1595,0.1789,0.1895,0.2089,0.2276,0.2383,0.2654,0.2682,0.272,0.2748,0.2666,0.2564,0.2549,0.2303,0.2273,0.2354,0.2345,0.2385,0.238,0.2376,0.2373,0.237,0,0.1056,0.1086,0.1261,0.1339,0.1438,0.1586,0.1661,0.1857,0.1961,0.2241,0.2312,0.2529,0.2579,0.2514,0.249,0.2365,0.2488,0.2182,0.2148,0.2339,0.2334,0.233,0.2326,0.196,0.1954,0.1949,0.1945,0,0.1007,0.1057,0.1184,0.1311,0.1423,0.1505,0.1661,0.1723,0.1936,0.2089,0.225,0.2317,0.2351,0.2224,0.2174,0.206,0.2159,0.2076,0.2419,0.2063,0.1935,0.193,0.1942,0.1902,0.1907,0.191,0.1912,0.1914,0.1012,0.1036,0.1173,0.1345,0.1399,0.1451,0.156,0.1674,0.1804,0.1992,0.2051,0.2079,0.2037,0.1868,0.1754,0.1765,0.1877,0.1796,0.1814,0.1836,0.1787,0.166,0.1559,0.1561,0.1563,0.1565,0.1567,0,0.1053,0.1118,0.1191,0.1375,0.1418,0.1482,0.1562,0.1626,0.1757,0.1803,0.1876,0.1652,0.1515,0.1517,0.1463,0.1392,0.1407,0.1338,0.1382,0.1422,0.1459,0.1395,0.1061,0.106,0.1059,0.1058,0,0,0.1079,0.1195,0.1222,0.1379,0.1482,0.1528,0.1588,0.1617,0.1631,0.1581,0.1572,0.1501,0.1486,0.1297,0.1207,0.1174,0.1305,0.1116,0.1515,0.1612,0.1648,0.1701,0.1644,0,0,0,0,0]},{"header":{"parameterUnit":"m.s-1","parameterCategory":2,"la1":30.2991,"la2":30.254,"lo1":-89.0895,"lo2":-89.0444,"dy":0.0017,"dx":0.0017,"nx":28,"ny":28,"refTime":"2023-08-10T03:00:00:Z","depth":"2","parameterNumber":3,"parameterNumberName":"V-component_of_CURRENTS"},"data":[0,0,0,0,0,0,0,0,0,0,0,0,0,0,0,0,0,0,0,0,0,0,0,0,0,0,0,0,0,0,0,0,0,0,0,0,0,0,0,0,0,0,0,0,0,0,0,0,0,0,0,0,0,0,0,0,0,0,-0.0201,-0.02,0,-0.0207,-0.0208,-0.0209,-0.0323,-0.0324,-0.0326,-0.0327,-0.038,-0.038,-0.038,0,0,0,0,0,0,0,0,0,0,0,0,0,-0.0289,-0.0288,-0.0201,-0.02,-0.0199,-0.0207,-0.0208,-0.021,-0.0323,-0.0324,-0.0326,-0.0328,-0.038,-0.038,-0.038,0,0,0,0,0,0,0,0,0,0,0,0,0,-0.0283,-0.0288,-0.0201,-0.0245,-0.0248,-0.0207,-0.0208,-0.021,-0.0322,-0.0325,-0.0327,-0.0329,-0.038,-0.038,-0.038,-0.0333,0,0,-0.038,-0.038,0,0,0,0,0,0,0,0,-0.0283,-0.0281,-0.024,-0.0242,-0.0245,-0.0254,-0.0258,-0.0248,-0.0322,-0.0309,-0.0327,-0.033,-0.0331,-0.0335,-0.0351,-0.0335,-0.0338,-0.038,-0.038,-0.038,-0.038,0,0,0,0,0,0,0,-0.0283,-0.0281,-0.0218,-0.0238,-0.0241,-0.0264,-0.0267,-0.0258,-0.0319,-0.0311,-0.0315,-0.0292,-0.0335,-0.0351,-0.0353,-0.0338,-0.038,-0.038,-0.038,-0.038,-0.0322,-0.0321,0,0,0,0,0,0,-0.025,-0.0281,-0.0218,-0.0217,-0.0254,-0.0259,-0.0264,-0.0261,-0.0318,-0.0325,-0.029,-0.0297,-0.035,-0.0353,-0.0355,-0.0322,-0.038,-0.038,-0.038,-0.0324,-0.0322,-0.032,0,0,0,0,0,0,-0.0252,-0.0245,-0.0217,-0.0237,-0.0233,-0.0254,-0.025,-0.0259,-0.0285,-0.0299,-0.0311,-0.0305,-0.0352,-0.0355,-0.0349,-0.0324,-0.038,-0.038,-0.0326,-0.0323,-0.0321,-0.0242,0,0,0,0,0,0,-0.0255,-0.0247,-0.0251,-0.0235,-0.023,-0.0208,-0.0246,-0.0257,-0.0258,-0.0269,-0.0315,-0.0323,-0.0354,-0.0349,-0.0349,-0.0325,-0.038,-0.0328,-0.0325,-0.0322,-0.0246,-0.0237,-0.0229,0,0,0,0,0,-0.0259,-0.0236,-0.0252,-0.0243,-0.023,-0.0206,-0.0209,-0.024,-0.0256,-0.0273,-0.0289,-0.0322,-0.0332,-0.0347,-0.0348,-0.0323,-0.0329,-0.0325,-0.0322,-0.025,-0.0239,-0.023,0,0,0,0,0,0,-0.0253,-0.0243,-0.0261,-0.0233,-0.0228,-0.0221,-0.0219,-0.0231,-0.0257,-0.0264,-0.0297,-0.0304,-0.0295,-0.031,-0.0326,-0.0298,-0.0337,-0.0333,-0.0282,-0.0272,-0.0263,-0.0245,-0.038,0,0,0,0,0,-0.0253,-0.0254,-0.0237,-0.0215,-0.0211,-0.0216,-0.0212,-0.0226,-0.0227,-0.0245,-0.0268,-0.028,-0.0276,-0.0277,-0.0289,-0.0259,-0.0294,-0.0245,-0.0236,-0.0229,-0.0214,-0.0248,-0.0242,-0.031,-0.031,-0.031,0,0,-0.0234,-0.023,-0.0227,-0.0217,-0.0218,-0.0191,-0.0225,-0.0207,-0.0185,-0.0238,-0.0232,-0.0254,-0.0263,-0.0246,-0.0242,-0.0258,-0.0229,-0.0225,-0.0219,-0.0207,-0.0244,-0.0238,-0.0232,-0.0307,-0.0308,-0.0308,0,0,-0.019,-0.0204,-0.0195,-0.0189,-0.0175,-0.0171,-0.0161,-0.0158,-0.0174,-0.0152,-0.0183,-0.0196,-0.0185,-0.02,-0.0197,-0.0142,-0.0187,-0.0134,-0.0069,-0.0102,-0.0097,-0.0093,-0.0135,-0.0136,-0.0124,-0.0124,-0.0124,0,-0.0178,-0.0152,-0.0183,-0.0162,-0.0131,-0.0154,-0.0111,-0.0118,-0.0115,-0.0102,-0.0144,-0.0131,-0.0167,-0.012,-0.0111,-0.0126,-0.0144,-0.0108,-0.0092,-0.0089,-0.0086,-0.0131,-0.0132,-0.012,-0.012,-0.0121,-0.0121,0,-0.0119,-0.0103,-0.0084,-0.0074,-0.0056,-0.0017,-0.0008,-0.0002,-0.001,-0.0014,0.0005,-0.0043,-0.0028,-0.0047,-0.0061,-0.0035,-0.0055,-0.0085,-0.0121,-0.0075,-0.0124,-0.0127,-0.0114,-0.0115,-0.0117,-0.0118,0,0,-0.0082,-0.0053,-0.0049,-0.002,0.0001,0.0036,0.0078,0.0117,0.016,0.0122,0.018,0.014,0.0112,0.0114,0.0084,0.0044,0.0022,0.0005,0.0001,-0.004,-0.0042,-0.0066,-0.0073,0.0007,0.0008,0.0008,-0.0087,0,-0.0028,0.0039,0.0039,0.0122,0.0167,0.0171,0.022,0.0246,0.0249,0.0287,0.0239,0.0267,0.018,0.0199,0.0149,0.0052,0.0021,0.005,-0.0076,-0.008,-0.011,-0.0075,-0.0095,-0.018,-0.009,-0.0091,-0.0091,0,0.0026,0.0068,0.0156,0.0236,0.0257,0.0302,0.0391,0.0427,0.0461,0.0464,0.0471,0.0446,0.0409,0.0329,0.0176,0.0209,0.0109,0.0012,0.0006,-0.0043,-0.0109,-0.021,-0.019,-0.0097,-0.0096,-0.0096,-0.0096,0,0.0078,0.0155,0.0235,0.0261,0.0339,0.039,0.0435,0.0479,0.053,0.0584,0.0625,0.0576,0.0569,0.0422,0.0228,0.0216,0.0049,-0.0001,-0.0115,-0.0119,-0.0176,-0.0185,-0.0081,-0.0081,-0.0081,-0.0081,-0.0081,0,0.0144,0.0211,0.0267,0.0312,0.0433,0.0452,0.0566,0.0606,0.0668,0.0751,0.072,0.0769,0.0595,0.0491,0.0291,0.0074,0.0093,-0.0093,-0.0137,-0.0149,-0.0153,-0.0111,-0.0113,-0.0084,-0.0084,-0.0083,-0.0082,0,0.0206,0.0228,0.0329,0.0418,0.0458,0.0543,0.0658,0.0732,0.077,0.0885,0.0919,0.0911,0.075,0.0545,0.0307,0.0164,-0.0055,-0.0122,-0.0125,-0.0167,-0.0217,-0.0214,-0.0267,-0.0269,-0.027,-0.0271,-0.0272,0,0.0258,0.0307,0.0414,0.0476,0.0523,0.0639,0.0724,0.079,0.0868,0.0962,0.1028,0.0955,0.0882,0.0519,0.0248,-0.0083,-0.0099,-0.0243,-0.0276,-0.0194,-0.0233,-0.0227,-0.0223,-0.0332,-0.0333,-0.0334,-0.0335,0,0.0366,0.0383,0.0453,0.0575,0.0668,0.0802,0.0919,0.0999,0.1085,0.1166,0.123,0.117,0.0841,0.0501,0.0107,-0.01,-0.0202,-0.0273,-0.0187,-0.0269,-0.026,-0.0296,-0.0288,-0.0345,-0.0344,-0.0343,-0.0343,-0.0342,0.0428,0.0497,0.0565,0.0685,0.0798,0.0954,0.1083,0.1193,0.1334,0.1398,0.1306,0.1153,0.0776,0.0196,-0.0069,-0.0277,-0.0291,-0.0392,-0.0387,-0.0382,-0.036,-0.0351,-0.0451,-0.045,-0.045,-0.045,-0.045,0,0.0492,0.0561,0.0682,0.0818,0.0959,0.1014,0.1211,0.1327,0.1505,0.1414,0.1362,0.0906,0.0501,0.014,-0.019,-0.0408,-0.0402,-0.0463,-0.0432,-0.0425,-0.0417,-0.0394,-0.0496,-0.0496,-0.0496,-0.0496,0,0,0.0516,0.0619,0.0686,0.0923,0.1044,0.1264,0.1391,0.1549,0.1553,0.1438,0.1245,0.0867,0.0462,0.0177,-0.014,-0.0282,-0.0273,-0.0302,-0.0257,-0.0177,-0.0165,-0.0389,-0.0347,0,0,0,0,0]}],[{"header":{"parameterUnit":"m.s-1","parameterCategory":2,"la1":30.2991,"la2":30.254,"lo1":-89.0895,"lo2":-89.0444,"dy":0.0017,"dx":0.0017,"nx":28,"ny":28,"refTime":"2023-08-10T03:00:00:Z","depth":"4","parameterNumber":2,"parameterNumberName":"U-component_of_CURRENTS"},"data":[0,0,0,0,0,0,0,0,0,0,0,0,0,0,0,0,0,0,0,0,0,0,0,0,0,0,0,0,0,0,0,0,0,0,0,0,0,0,0,0,0,0,0,0,0,0,0,0,0,0,0,0,0,0,0,0,0,0,-0.013,-0.0129,0,-0.0095,-0.0094,-0.0094,-0.0085,-0.0086,-0.0086,-0.0086,-0.0372,-0.0379,-0.0386,0,0,0,0,0,0,0,0,0,0,0,0,0,-0.02,-0.0198,-0.013,-0.0129,-0.0129,-0.0095,-0.0094,-0.0094,-0.0085,-0.0086,-0.0086,-0.0086,-0.0369,-0.0378,-0.0387,0,0,0,0,0,0,0,0,0,0,0,0,0,-0.0167,-0.0198,-0.013,-0.0121,-0.0119,-0.0095,-0.0094,-0.0094,-0.0085,-0.0086,-0.0086,-0.0086,-0.0366,-0.0377,-0.0388,-0.0449,0,0,-0.0422,-0.0427,0,0,0,0,0,0,0,0,-0.0169,-0.0165,-0.0122,-0.0121,-0.012,-0.0095,-0.0223,-0.0229,-0.0085,-0.0098,-0.0086,-0.0086,-0.0309,-0.0324,-0.0312,-0.0463,-0.0475,-0.0423,-0.043,-0.0434,-0.0437,0,0,0,0,0,0,0,-0.0171,-0.0166,-0.0116,-0.0122,-0.012,-0.0122,-0.0117,-0.0223,-0.0208,-0.0097,-0.0096,-0.0092,-0.031,-0.0301,-0.032,-0.0479,-0.0423,-0.0432,-0.0439,-0.0444,-0.0799,-0.0801,0,0,0,0,0,0,-0.0175,-0.0168,-0.0117,-0.0115,-0.0146,-0.012,-0.0115,-0.0102,-0.02,-0.0212,-0.0092,-0.0092,-0.0282,-0.0307,-0.0331,-0.0427,-0.0434,-0.0445,-0.0451,-0.0796,-0.0799,-0.0802,0,0,0,0,0,0,-0.0176,-0.017,-0.0118,-0.0141,-0.0135,-0.0119,-0.0104,-0.0102,-0.0096,-0.0192,-0.0211,-0.0089,-0.0283,-0.0315,-0.0385,-0.0438,-0.045,-0.046,-0.0792,-0.0797,-0.0801,-0.0611,0,0,0,0,0,0,-0.0178,-0.017,-0.0163,-0.0141,-0.0134,-0.0103,-0.0104,-0.0101,-0.0093,-0.0092,-0.0198,-0.0223,-0.0286,-0.0367,-0.0396,-0.0454,-0.0468,-0.0789,-0.0794,-0.0799,-0.0614,-0.0609,-0.0604,0,0,0,0,0,-0.018,-0.0164,-0.0163,-0.0157,-0.0123,-0.0103,-0.0099,-0.0089,-0.0092,-0.0086,-0.0129,-0.0219,-0.0425,-0.0374,-0.0409,-0.0472,-0.0786,-0.0793,-0.0799,-0.0616,-0.061,-0.0604,0,0,0,0,0,0,-0.0192,-0.0161,-0.0159,-0.0135,-0.0122,-0.0101,-0.009,-0.009,-0.0112,-0.0118,-0.0208,-0.0235,-0.0331,-0.0434,-0.0377,-0.0602,-0.0644,-0.0656,-0.0494,-0.0489,-0.0484,-0.0459,-0.0478,0,0,0,0,0,-0.0191,-0.0171,-0.0149,-0.0133,-0.0122,-0.0109,-0.01,-0.0093,-0.0107,-0.0113,-0.0181,-0.0287,-0.0386,-0.0451,-0.055,-0.065,-0.0665,-0.0738,-0.0732,-0.0727,-0.0737,-0.0804,-0.0802,-0.0823,-0.0823,-0.0823,0,0,-0.0195,-0.0174,-0.0165,-0.0135,-0.0121,-0.0101,-0.0104,-0.0084,-0.0076,-0.0153,-0.0174,-0.0259,-0.0405,-0.0494,-0.0557,-0.0584,-0.0703,-0.0735,-0.0727,-0.0742,-0.081,-0.0807,-0.0804,-0.0827,-0.0826,-0.0826,0,0,-0.019,-0.0168,-0.0151,-0.0133,-0.0108,-0.0095,-0.0092,-0.0074,-0.0071,-0.0095,-0.016,-0.0234,-0.0399,-0.0474,-0.0549,-0.0591,-0.0662,-0.0691,-0.0652,-0.0714,-0.0711,-0.0709,-0.0577,-0.0566,-0.0701,-0.0701,-0.0701,0,-0.0199,-0.0165,-0.0146,-0.0122,-0.0104,-0.0093,-0.0072,-0.0064,-0.0074,-0.008,-0.0096,-0.0282,-0.0382,-0.0493,-0.0509,-0.0573,-0.0574,-0.0637,-0.0696,-0.0696,-0.0697,-0.0565,-0.0554,-0.0693,-0.0694,-0.0694,-0.0695,0,-0.0175,-0.0151,-0.0136,-0.0101,-0.0083,-0.0058,-0.0041,-0.0034,-0.0039,-0.0043,-0.0123,-0.0215,-0.0343,-0.0402,-0.0467,-0.0566,-0.0539,-0.0653,-0.0679,-0.0681,-0.0543,-0.0534,-0.0681,-0.0684,-0.0686,-0.0688,0,0,-0.0189,-0.0132,-0.0126,-0.0101,-0.0064,-0.0042,-0.0026,-0.0009,-0.0005,-0.0036,-0.0052,-0.0194,-0.0252,-0.0345,-0.0449,-0.0502,-0.0441,-0.059,-0.0597,-0.0396,-0.0449,-0.0429,-0.0417,-0.0585,-0.0587,-0.0588,-0.0291,0,-0.0178,-0.0129,-0.0103,-0.006,-0.003,-0.0008,0.0005,0.0018,0.001,-0.0001,-0.008,-0.016,-0.0235,-0.0312,-0.0369,-0.0488,-0.0441,-0.0502,-0.0537,-0.0533,-0.0469,-0.0418,-0.0593,-0.0285,-0.0283,-0.0282,-0.0281,0,-0.0159,-0.0126,-0.0083,-0.0028,-0.0013,0.0006,0.0037,0.0046,0.0034,0.0016,-0.0052,-0.0121,-0.0214,-0.0283,-0.0367,-0.042,-0.0406,-0.0433,-0.0426,-0.0489,-0.0507,-0.0334,-0.0267,-0.0268,-0.0269,-0.027,-0.0271,0,-0.0167,-0.0107,-0.007,-0.0049,0.0004,0.002,0.0038,0.0043,0.0057,0.0005,0.0002,-0.011,-0.0164,-0.0244,-0.0311,-0.0361,-0.0342,-0.0417,-0.0309,-0.0298,-0.0478,-0.0487,-0.0387,-0.0387,-0.0388,-0.0389,-0.039,0,-0.0152,-0.0125,-0.0071,-0.0049,-0.0008,0.0018,0.0043,0.0043,0.0043,0.0062,-0.0016,-0.0024,-0.0182,-0.0196,-0.0255,-0.0249,-0.0288,-0.0262,-0.026,-0.0387,-0.039,-0.046,-0.0473,-0.0377,-0.038,-0.0382,-0.0384,0,-0.0169,-0.0133,-0.0091,-0.0034,-0.0011,0.0007,0.0061,0.0078,0.0068,0.0087,0.0067,0.0042,0.0008,-0.0045,-0.0117,-0.0145,-0.0171,-0.0122,-0.01,-0.0107,-0.0047,-0.0054,0.0051,0.0054,0.0056,0.0057,0.0059,0,-0.0168,-0.0147,-0.0085,-0.0055,-0.003,0.001,0.0044,0.0067,0.009,0.0135,0.015,0.0161,0.0136,0.0139,0.0023,0.0023,-0.0008,0.006,-0.0124,-0.0013,-0.002,-0.0031,-0.004,0.0062,0.0062,0.0063,0.0063,0,-0.017,-0.0157,-0.013,-0.0072,-0.0028,0.0038,0.0088,0.0116,0.0154,0.0163,0.0232,0.0231,0.0262,0.0187,0.0204,0.0166,0.0001,0.008,0.0074,-0.0097,0.0,-0.0011,-0.0023,0.007,0.0069,0.0068,0.0068,0,-0.0186,-0.0174,-0.0137,-0.0093,-0.0025,0.0055,0.0086,0.0156,0.0197,0.0253,0.0286,0.0294,0.0297,0.0276,0.0252,0.0226,0.0206,0.0173,0.0163,0.0155,0.0017,0.0145,0.0291,0,0,0,0,0,-0.0189,-0.0179,-0.0143,-0.008,-0.0011,0.004,0.0121,0.0152,0.0205,0.0266,0.0281,0.0306,0.0308,0.0302,0.0289,0.026,0.0177,0.0242,0.0128,0.0107,0.0099,-0.0092,0,0,0,0,0,0,-0.0189,-0.017,-0.0159,-0.0077,-0.0022,0.0072,0.0128,0.017,0.0211,0.0258,0.026,0.0291,0.0282,0.0309,0.0282,0.0277,0.0202,0.0245,0.0244,0.0111,0.0104,0.0098,-0.0102,0,0,0,0,0]},{"header":{"parameterUnit":"m.s-1","parameterCategory":2,"la1":30.2991,"la2":30.254,"lo1":-89.0895,"lo2":-89.0444,"dy":0.0017,"dx":0.0017,"nx":28,"ny":28,"refTime":"2023-08-10T03:00:00:Z","depth":"4","parameterNumber":3,"parameterNumberName":"V-component_of_CURRENTS"},"data":[0,0,0,0,0,0,0,0,0,0,0,0,0,0,0,0,0,0,0,0,0,0,0,0,0,0,0,0,0,0,0,0,0,0,0,0,0,0,0,0,0,0,0,0,0,0,0,0,0,0,0,0,0,0,0,0,0,0,0.009,0.0089,0,0.0033,0.0033,0.0032,0.004,0.0041,0.0042,0.0043,-0.0015,-0.0018,-0.002,0,0,0,0,0,0,0,0,0,0,0,0,0,0.0144,0.0144,0.009,0.0089,0.0088,0.0034,0.0033,0.0032,0.004,0.0041,0.0042,0.0043,-0.0015,-0.0017,-0.002,0,0,0,0,0,0,0,0,0,0,0,0,0,0.0109,0.0144,0.009,0.0084,0.0083,0.0034,0.0033,0.0032,0.004,0.0041,0.0042,0.0044,-0.0014,-0.0017,-0.002,-0.0065,0,0,-0.0031,-0.0032,0,0,0,0,0,0,0,0,0.0111,0.0108,0.0086,0.0084,0.0083,0.0044,0.0031,-0.0001,0.004,0.0058,0.0043,0.0044,0.0002,-0.0003,-0.0013,-0.0067,-0.007,-0.0031,-0.0033,-0.0035,-0.0036,0,0,0,0,0,0,0,0.0114,0.011,0.0069,0.0085,0.0083,0.0064,0.0061,0.0025,0.0026,0.0057,0.0057,0.0047,0.0002,-0.001,-0.0014,-0.0071,-0.0031,-0.0034,-0.0036,-0.0038,-0.0208,-0.021,0,0,0,0,0,0,0.0119,0.0112,0.0071,0.0067,0.0098,0.0062,0.0059,0.0057,0.0026,0.0022,0.0046,0.0048,-0.0005,-0.001,-0.0016,-0.0075,-0.0035,-0.0038,-0.004,-0.0206,-0.0209,-0.0211,0,0,0,0,0,0,0.012,0.0116,0.0073,0.0087,0.008,0.006,0.0057,0.0055,0.0044,0.0018,0.0015,0.0039,-0.0004,-0.0012,-0.0055,-0.0076,-0.0039,-0.0042,-0.0203,-0.0207,-0.021,-0.0188,0,0,0,0,0,0,0.0122,0.0117,0.0115,0.0087,0.0079,0.0046,0.0056,0.0053,0.0036,0.0037,0.0009,0.0006,-0.0004,-0.005,-0.0059,-0.008,-0.0045,-0.02,-0.0204,-0.0209,-0.0186,-0.0191,-0.0195,0,0,0,0,0,0.0125,0.0125,0.0116,0.011,0.0079,0.0045,0.0039,0.003,0.0034,0.0025,0.0002,0.0007,-0.0086,-0.0055,-0.0064,-0.0087,-0.0197,-0.0203,-0.0208,-0.0184,-0.019,-0.0195,0,0,0,0,0,0,0.0145,0.0125,0.0114,0.0108,0.0076,0.0046,0.0036,0.0025,-0.0001,0.0001,-0.0017,-0.0024,-0.0071,-0.0096,-0.006,-0.0157,-0.0146,-0.0153,-0.0124,-0.013,-0.0134,-0.0126,-0.0048,0,0,0,0,0,0.0147,0.0141,0.0111,0.0098,0.0088,0.0058,0.0043,0.0032,0.0004,-0.0005,-0.0035,-0.0072,-0.0106,-0.0127,-0.0164,-0.0215,-0.0223,-0.0244,-0.0248,-0.0252,-0.0257,-0.0301,-0.0309,-0.023,-0.023,-0.023,0,0,0.0146,0.0134,0.0129,0.0101,0.0079,0.0046,0.0053,0.0027,-0.0009,-0.001,-0.0069,-0.0086,-0.0124,-0.0174,-0.02,-0.0194,-0.0276,-0.0259,-0.0261,-0.0264,-0.0308,-0.0315,-0.0321,-0.0234,-0.0233,-0.0232,0,0,0.0135,0.0135,0.0122,0.0099,0.0064,0.0039,0.003,-0.0011,-0.0031,-0.0089,-0.0097,-0.0125,-0.0197,-0.0217,-0.0236,-0.0297,-0.0296,-0.0321,-0.0336,-0.0379,-0.0384,-0.039,-0.0381,-0.0385,-0.0326,-0.0326,-0.0326,0,0.0132,0.0115,0.0109,0.0085,0.0059,0.0034,0.0,-0.0032,-0.009,-0.0114,-0.011,-0.0197,-0.0217,-0.0265,-0.0282,-0.0303,-0.0315,-0.0299,-0.038,-0.0386,-0.0391,-0.0381,-0.0387,-0.0326,-0.0326,-0.0326,-0.0326,0,0.0108,0.0089,0.0079,0.0038,0.0008,-0.0021,-0.0067,-0.0105,-0.0134,-0.0168,-0.0222,-0.0244,-0.0289,-0.0306,-0.0308,-0.0365,-0.0353,-0.037,-0.035,-0.0397,-0.0384,-0.039,-0.0325,-0.0325,-0.0325,-0.0325,0,0,0.011,0.0071,0.0065,0.0038,-0.0015,-0.0044,-0.0105,-0.0166,-0.0202,-0.0249,-0.0292,-0.0337,-0.0332,-0.0356,-0.0359,-0.0393,-0.0422,-0.04,-0.0402,-0.0363,-0.0485,-0.0456,-0.0459,-0.0454,-0.0456,-0.0458,-0.0447,0,0.0086,0.0045,0.0024,-0.0039,-0.0068,-0.0107,-0.0162,-0.0218,-0.0263,-0.0313,-0.0328,-0.0368,-0.0358,-0.0363,-0.0396,-0.0421,-0.0443,-0.0421,-0.0471,-0.0472,-0.0419,-0.0468,-0.0463,-0.0451,-0.0452,-0.0453,-0.0454,0,0.0065,0.004,-0.0011,-0.0072,-0.0088,-0.0135,-0.0212,-0.0265,-0.0331,-0.0358,-0.0388,-0.0399,-0.0431,-0.0422,-0.0473,-0.0461,-0.0475,-0.0489,-0.0489,-0.0478,-0.0457,-0.0409,-0.0465,-0.0464,-0.0463,-0.0462,-0.0462,0,0.0068,0.0011,-0.0028,-0.0049,-0.0122,-0.0159,-0.0206,-0.028,-0.0319,-0.0382,-0.0397,-0.0441,-0.0447,-0.049,-0.0492,-0.0498,-0.0542,-0.0555,-0.0534,-0.053,-0.0561,-0.0556,-0.0604,-0.0604,-0.0604,-0.0604,-0.0604,0,0.005,0.0013,-0.0028,-0.0053,-0.0106,-0.016,-0.0223,-0.0275,-0.0334,-0.0367,-0.0409,-0.0419,-0.0472,-0.0488,-0.0507,-0.0522,-0.0551,-0.0542,-0.0541,-0.055,-0.0544,-0.0562,-0.0557,-0.0603,-0.0603,-0.0604,-0.0604,0,0.0035,0.0018,-0.003,-0.009,-0.0108,-0.0152,-0.0223,-0.0261,-0.0317,-0.0356,-0.0367,-0.0413,-0.0442,-0.0468,-0.0523,-0.0527,-0.0554,-0.055,-0.0518,-0.0513,-0.0506,-0.0501,-0.0546,-0.0545,-0.0544,-0.0544,-0.0543,0,0.001,-0.0008,-0.0049,-0.0061,-0.0094,-0.0151,-0.0184,-0.025,-0.0279,-0.0337,-0.0342,-0.0382,-0.0405,-0.044,-0.0488,-0.0522,-0.0527,-0.0525,-0.056,-0.0514,-0.0508,-0.0503,-0.0499,-0.0542,-0.0542,-0.0542,-0.0542,0,-0.0039,-0.0037,-0.0067,-0.0074,-0.0101,-0.014,-0.0186,-0.0198,-0.0258,-0.0292,-0.0314,-0.0346,-0.0377,-0.0424,-0.0444,-0.0471,-0.0528,-0.0519,-0.0521,-0.0554,-0.051,-0.0504,-0.0501,-0.054,-0.054,-0.054,-0.054,0,-0.0076,-0.009,-0.0092,-0.0101,-0.011,-0.0124,-0.0156,-0.0183,-0.0216,-0.0264,-0.0261,-0.0313,-0.0348,-0.0396,-0.0414,-0.0442,-0.0464,-0.0469,-0.0474,-0.0477,-0.0469,-0.0404,-0.0408,0,0,0,0,0,-0.0119,-0.0114,-0.0118,-0.0119,-0.0113,-0.0116,-0.0151,-0.0177,-0.0205,-0.021,-0.0241,-0.0265,-0.0322,-0.0354,-0.0378,-0.0418,-0.0474,-0.0447,-0.0483,-0.0528,-0.0531,-0.0532,0,0,0,0,0,0,-0.0146,-0.0148,-0.0125,-0.0113,-0.0103,-0.0113,-0.0125,-0.0153,-0.016,-0.0187,-0.0216,-0.0249,-0.0306,-0.0294,-0.0367,-0.0381,-0.0403,-0.0483,-0.0483,-0.0527,-0.0529,-0.0531,-0.0533,0,0,0,0,0]}]]